EW9980 Weather Reports


time (UTC)temp
F
wind
direction
speed
knots
gust
knots
rain 1hr
in
rain 24hr
in
rain mn
in
humidity
%
barometer
mb
20260502163029 53 346 0.0 4.3 0.00 0.00 0.00 27 1019.1
20260502161525 51 162 1.7 4.3 0.00 0.00 0.00 28 1019.3
20260502151610 44 111 0.9 3.5 0.00 0.00 0.00 40 1020.1
20260502123054 22 101 0.0 0.9 0.00 0.00 0.00 67 1020.7
20260502121542 22 101 0.0 0.9 0.00 0.00 0.00 69 1020.6
20260502114537 23 104 0.0 1.7 0.00 0.00 0.00 65 1020.5
20260502113039 24 36 0.0 1.7 0.00 0.00 0.00 63 1020.5
20260502111545 25 12 0.0 1.7 0.00 0.00 0.00 64 1020.6
20260502110033 24 72 0.0 0.9 0.00 0.00 0.00 64 1020.7
20260502104531 25 15 0.0 1.7 0.00 0.00 0.00 64 1020.6
20260502103029 24 89 0.0 0.0 0.00 0.00 0.00 64 1020.6
20260502101529 25 89 0.0 0.9 0.00 0.00 0.00 64 1020.6
20260502091520 26 120 0.0 1.7 0.00 0.00 0.00 58 1020.2
20260502070059 32 18 1.7 3.5 0.00 0.00 0.00 50 1020.1
20260502064600 32 355 0.0 1.7 0.00 0.00 0.00 49 1020.3
20260502063114 33 98 0.0 0.9 0.00 0.00 0.00 47 1020.2
20260502061553 33 8 0.0 1.7 0.00 0.00 0.00 47 1020.3
20260502060049 33 94 0.0 1.7 0.00 0.00 0.00 47 1020.4
20260502054547 35 24 1.7 6.1 0.00 0.00 0.00 43 1020.2
20260502053052 36 18 1.7 5.2 0.00 0.00 0.00 43 1020.1
20260502051537 36 352 2.6 5.2 0.00 0.00 0.00 42 1020.0
20260502050030 37 328 1.7 5.2 0.00 0.00 0.00 41 1019.9
20260502044527 38 3 1.7 6.1 0.00 0.00 0.00 40 1019.8
20260502043022 37 15 2.6 4.3 0.00 0.00 0.00 41 1019.7
20260502041519 38 343 3.5 7.0 0.00 0.00 0.00 40 1019.5
20260502040013 37 15 0.0 3.5 0.00 0.00 0.00 42 1019.4
20260502034509 37 346 0.0 1.7 0.00 0.00 0.00 42 1019.1
20260502033005 40 90 0.0 0.9 0.00 0.00 0.00 39 1018.9
20260502031600 38 103 0.9 2.6 0.00 0.00 0.00 41 1018.5
20260502030056 44 36 0.0 3.5 0.00 0.00 0.00 34 1018.1
20260502024557 47 14 0.9 2.6 0.00 0.00 0.00 29 1017.9
20260502023047 49 354 1.7 2.6 0.00 0.00 0.00 28 1018.0
20260502021543 54 276 0.0 1.7 0.00 0.00 0.00 25 1018.0
20260502020041 57 250 0.9 3.5 0.00 0.00 0.00 14 1017.8
20260502014534 59 266 1.7 4.3 0.00 0.00 0.00 14 1017.8
20260502013033 60 224 2.6 5.2 0.00 0.00 0.00 11 1017.9
20260502011526 61 292 1.7 5.2 0.00 0.00 0.00 10 1017.9
20260502010022 61 240 3.5 7.0 0.00 0.00 0.00 9 1018.2
20260502004518 61 245 4.3 7.0 0.00 0.00 0.00 9 1018.2
20260502003015 62 219 3.5 7.0 0.00 0.00 0.00 8 1018.2
20260502001512 62 242 5.2 9.6 0.00 0.00 0.00 8 1018.3
20260502000007 62 257 6.1 9.6 0.00 0.00 0.00 9 1018.4
20260501234600 61 274 0.0 7.8 0.00 0.00 0.00 10 1018.6
20260501233055 62 146 0.9 7.8 0.00 0.00 0.00 9 1018.7
20260501231600 61 257 3.5 8.7 0.00 0.00 0.00 9 1018.8
20260501230056 61 246 0.9 7.8 0.00 0.00 0.00 12 1019.1
20260501224556 61 270 2.6 8.7 0.00 0.00 0.00 11 1019.3
20260501223047 60 309 2.6 7.8 0.00 0.00 0.00 11 1019.3
20260501221559 60 229 0.9 4.3 0.00 0.00 0.00 14 1019.5
20260501220038 60 311 0.9 6.1 0.00 0.00 0.00 11 1019.7
20260501214537 59 277 4.3 8.7 0.00 0.00 0.00 11 1019.8
20260501213033 60 319 2.6 7.8 0.00 0.00 0.00 16 1020.2
20260501211535 59 310 3.5 9.6 0.00 0.00 0.00 12 1020.3
20260501210031 59 260 4.3 8.7 0.00 0.00 0.00 11 1020.4
20260501204532 58 291 3.5 10.4 0.00 0.00 0.00 13 1020.6
20260501203027 58 126 0.9 6.1 0.00 0.00 0.00 12 1020.7
20260501201526 58 289 1.7 7.8 0.00 0.00 0.00 18 1020.9
20260501200023 57 160 3.5 7.8 0.00 0.00 0.00 15 1021.0
20260501194524 56 165 3.5 7.8 0.00 0.00 0.00 15 1021.2
20260501193033 56 288 4.3 7.8 0.00 0.00 0.00 17 1021.3
20260501191517 55 308 2.6 6.1 0.00 0.00 0.00 18 1021.6
20260501190020 54 205 1.7 9.6 0.00 0.00 0.00 18 1021.8
20260501184512 54 312 4.3 7.0 0.00 0.00 0.00 19 1022.1
20260501183010 53 208 2.6 0.0 0.00 0.00 0.00 24 1022.2
20260501181506 52 315 2.6 7.0 0.00 0.00 0.00 22 1022.3